Time,TemperatureF,DewpointF,PressureIn,WindDirection,WindDirectionDegrees,WindSpeedMPH,WindSpeedGustMPH,Humidity,HourlyPrecipIn,Conditions,Clouds,dailyrainin,SolarRadiationWatts/m^2,SoftwareType,DateUTC
2013-05-07 00:22:00,31.0,31.0,-100.00,SSW,203,4.0,8.0,98,0.00,,,0.15,1.000000,,2013-05-07 06:22:00,
2013-05-07 00:32:00,31.0,31.0,-100.00,SSW,203,4.0,8.0,98,0.00,,,0.15,1.000000,,2013-05-07 06:32:00,
2013-05-07 00:42:00,31.0,31.0,-100.00,SSW,203,4.0,8.0,98,0.00,,,0.15,1.000000,,2013-05-07 06:42:00,
2013-05-07 00:52:00,31.0,31.0,-100.00,SSW,203,4.0,8.0,98,0.00,,,0.15,1.000000,,2013-05-07 06:52:00,
2013-05-07 01:22:00,32.0,32.0,-100.00,SSE,168,3.0,6.0,98,0.00,,,0.15,0.000000,,2013-05-07 07:22:00,
2013-05-07 01:31:00,32.0,32.0,-100.00,SSE,168,3.0,6.0,98,0.00,,,0.15,0.000000,,2013-05-07 07:31:00,
2013-05-07 01:42:00,32.0,32.0,-100.00,SSE,168,3.0,6.0,98,0.00,,,0.15,0.000000,,2013-05-07 07:42:00,
2013-05-07 01:52:00,32.0,32.0,-100.00,SSE,168,3.0,6.0,98,0.00,,,0.15,0.000000,,2013-05-07 07:52:00,
2013-05-07 02:21:00,32.0,32.0,-100.00,SSW,196,5.0,9.0,98,0.00,,,0.15,0.000000,,2013-05-07 08:21:00,
2013-05-07 02:31:00,32.0,32.0,-100.00,SSW,196,5.0,9.0,98,0.00,,,0.15,0.000000,,2013-05-07 08:31:00,
2013-05-07 02:41:00,32.0,32.0,-100.00,SSW,196,5.0,9.0,98,0.00,,,0.15,0.000000,,2013-05-07 08:41:00,
2013-05-07 02:52:00,32.0,32.0,-100.00,SSW,196,5.0,9.0,98,0.00,,,0.15,0.000000,,2013-05-07 08:52:00,
2013-05-07 03:22:00,32.0,32.0,-100.00,SSW,200,5.0,12.0,98,0.00,,,0.15,0.000000,,2013-05-07 09:22:00,
2013-05-07 03:33:00,32.0,32.0,-100.00,SSW,200,5.0,12.0,98,0.00,,,0.15,0.000000,,2013-05-07 09:33:00,
2013-05-07 03:42:00,32.0,32.0,-100.00,SSW,200,5.0,12.0,98,0.00,,,0.15,0.000000,,2013-05-07 09:42:00,
2013-05-07 03:52:00,32.0,32.0,-100.00,SSW,200,5.0,12.0,98,0.00,,,0.15,0.000000,,2013-05-07 09:52:00,
2013-05-07 04:23:00,32.0,32.0,-100.00,SSW,203,6.0,9.0,99,0.00,,,0.15,1.000000,,2013-05-07 10:23:00,
2013-05-07 04:32:00,32.0,32.0,-100.00,SSW,203,6.0,9.0,99,0.00,,,0.15,1.000000,,2013-05-07 10:32:00,
2013-05-07 04:42:00,32.0,32.0,-100.00,SSW,203,6.0,9.0,99,0.00,,,0.15,1.000000,,2013-05-07 10:42:00,
2013-05-07 04:52:00,32.0,32.0,-100.00,SSW,203,6.0,9.0,99,0.00,,,0.15,1.000000,,2013-05-07 10:52:00,
2013-05-07 05:22:00,32.0,32.0,-100.00,SSE,159,3.0,7.0,99,0.00,,,0.15,0.000000,,2013-05-07 11:22:00,
2013-05-07 05:32:00,32.0,32.0,-100.00,SSE,159,3.0,7.0,99,0.00,,,0.15,0.000000,,2013-05-07 11:32:00,
2013-05-07 05:42:00,32.0,32.0,-100.00,SSE,159,3.0,7.0,99,0.00,,,0.15,0.000000,,2013-05-07 11:42:00,
2013-05-07 05:51:00,32.0,32.0,-100.00,SSE,159,3.0,7.0,99,0.00,,,0.15,0.000000,,2013-05-07 11:51:00,
2013-05-07 06:21:00,32.0,32.0,-100.00,SE,145,4.0,6.0,99,0.00,,,0.15,1.000000,,2013-05-07 12:21:00,
2013-05-07 06:32:00,32.0,32.0,-100.00,SE,145,4.0,6.0,99,0.00,,,0.15,1.000000,,2013-05-07 12:32:00,
2013-05-07 06:42:00,32.0,32.0,-100.00,SE,145,4.0,6.0,99,0.00,,,0.15,1.000000,,2013-05-07 12:42:00,
2013-05-07 06:52:00,32.0,32.0,-100.00,SE,145,4.0,6.0,99,0.00,,,0.15,1.000000,,2013-05-07 12:52:00,
2013-05-07 07:21:00,32.0,32.0,-100.00,SSE,165,4.0,7.0,99,0.00,,,0.15,4.000000,,2013-05-07 13:21:00,
2013-05-07 07:32:00,32.0,32.0,-100.00,SSE,165,4.0,7.0,99,0.00,,,0.15,4.000000,,2013-05-07 13:32:00,
2013-05-07 07:42:00,32.0,32.0,-100.00,SSE,165,4.0,7.0,99,0.00,,,0.15,4.000000,,2013-05-07 13:42:00,
2013-05-07 07:52:00,32.0,32.0,-100.00,SSE,165,4.0,7.0,99,0.00,,,0.15,4.000000,,2013-05-07 13:52:00,
2013-05-07 08:21:00,37.0,35.0,-100.00,ESE,122,2.0,5.0,94,0.00,,,0.15,46.000000,,2013-05-07 14:21:00,
2013-05-07 08:31:00,37.0,35.0,-100.00,ESE,122,2.0,5.0,94,0.00,,,0.15,46.000000,,2013-05-07 14:31:00,
2013-05-07 08:42:00,37.0,35.0,-100.00,ESE,122,2.0,5.0,94,0.00,,,0.15,46.000000,,2013-05-07 14:42:00,
2013-05-07 08:52:00,37.0,35.0,-100.00,ESE,122,2.0,5.0,94,0.00,,,0.15,46.000000,,2013-05-07 14:52:00,
2013-05-07 09:21:00,36.0,34.0,-100.00,SSE,150,4.0,6.0,93,0.06,,,0.21,131.000000,,2013-05-07 15:21:00,
2013-05-07 09:33:00,36.0,34.0,-100.00,SSE,150,4.0,6.0,93,0.06,,,0.21,131.000000,,2013-05-07 15:33:00,
2013-05-07 09:42:00,36.0,34.0,-100.00,SSE,150,4.0,6.0,93,0.06,,,0.21,131.000000,,2013-05-07 15:42:00,
2013-05-07 09:52:00,36.0,34.0,-100.00,SSE,150,4.0,6.0,93,0.06,,,0.21,131.000000,,2013-05-07 15:52:00,
2013-05-07 12:21:00,46.0,27.0,-100.00,SSW,203,8.0,14.0,48,-99.99,,,0.33,845.000000,,2013-05-07 18:21:00,
2013-05-07 12:31:00,46.0,27.0,-100.00,SSW,203,8.0,14.0,48,-99.99,,,0.33,845.000000,,2013-05-07 18:31:00,
2013-05-07 12:41:00,46.0,27.0,-100.00,SSW,203,8.0,14.0,48,-99.99,,,0.33,845.000000,,2013-05-07 18:41:00,
2013-05-07 12:51:00,46.0,27.0,-100.00,SSW,203,8.0,14.0,48,-99.99,,,0.33,845.000000,,2013-05-07 18:51:00,
2013-05-07 13:21:00,47.0,27.0,-100.00,SSW,206,10.0,19.0,45,0.00,,,0.33,1016.000000,,2013-05-07 19:21:00,
2013-05-07 13:32:00,47.0,27.0,-100.00,SSW,206,10.0,19.0,45,0.00,,,0.33,1016.000000,,2013-05-07 19:32:00,
2013-05-07 13:41:00,47.0,27.0,-100.00,SSW,206,10.0,19.0,45,0.00,,,0.33,1016.000000,,2013-05-07 19:41:00,
2013-05-07 13:52:00,47.0,27.0,-100.00,SSW,206,10.0,19.0,45,0.00,,,0.33,1016.000000,,2013-05-07 19:52:00,
2013-05-07 14:21:00,42.0,30.0,-100.00,SSE,151,8.0,18.0,62,0.00,,,0.33,546.000000,,2013-05-07 20:21:00,
2013-05-07 14:32:00,42.0,30.0,-100.00,SSE,151,8.0,18.0,62,0.00,,,0.33,546.000000,,2013-05-07 20:32:00,
2013-05-07 14:41:00,42.0,30.0,-100.00,SSE,151,8.0,18.0,62,0.00,,,0.33,546.000000,,2013-05-07 20:41:00,
2013-05-07 14:51:00,42.0,30.0,-100.00,SSE,151,8.0,18.0,62,0.00,,,0.33,546.000000,,2013-05-07 20:51:00,
2013-05-07 15:21:00,41.0,26.0,-100.00,South,176,12.0,17.0,55,0.00,,,0.32,336.000000,,2013-05-07 21:21:00,
2013-05-07 15:32:00,41.0,26.0,-100.00,South,176,12.0,17.0,55,0.00,,,0.32,336.000000,,2013-05-07 21:32:00,
2013-05-07 15:42:00,41.0,26.0,-100.00,South,176,12.0,17.0,55,0.00,,,0.32,336.000000,,2013-05-07 21:42:00,
2013-05-07 15:52:00,41.0,26.0,-100.00,South,176,12.0,17.0,55,0.00,,,0.32,336.000000,,2013-05-07 21:52:00,
2013-05-07 16:42:00,33.0,32.0,-100.00,South,170,14.0,25.0,95,0.00,,,0.31,70.000000,,2013-05-07 22:42:00,
2013-05-07 16:52:00,33.0,32.0,-100.00,South,170,14.0,25.0,95,0.00,,,0.31,70.000000,,2013-05-07 22:52:00,
2013-05-07 17:21:00,34.0,32.0,-100.00,East,99,6.0,15.0,94,0.00,,,0.31,155.000000,,2013-05-07 23:21:00,
2013-05-07 17:32:00,34.0,32.0,-100.00,East,99,6.0,15.0,94,0.00,,,0.31,155.000000,,2013-05-07 23:32:00,
2013-05-07 17:41:00,34.0,32.0,-100.00,East,99,6.0,15.0,94,0.00,,,0.31,155.000000,,2013-05-07 23:41:00,
2013-05-07 17:52:00,34.0,32.0,-100.00,East,99,6.0,15.0,94,0.00,,,0.31,155.000000,,2013-05-07 23:52:00,
2013-05-07 18:21:00,38.0,31.0,-100.00,South,172,6.0,9.0,77,0.00,,,0.24,300.000000,,2013-05-08 00:21:00,
2013-05-07 18:32:00,38.0,31.0,-100.00,South,172,6.0,9.0,77,0.00,,,0.24,300.000000,,2013-05-08 00:32:00,
2013-05-07 18:42:00,38.0,31.0,-100.00,South,172,6.0,9.0,77,0.00,,,0.24,300.000000,,2013-05-08 00:42:00,
2013-05-07 18:51:00,38.0,31.0,-100.00,South,172,6.0,9.0,77,0.00,,,0.24,300.000000,,2013-05-08 00:51:00,
2013-05-07 19:21:00,34.0,31.0,-100.00,SSE,157,11.0,16.0,87,0.00,,,0.24,133.000000,,2013-05-08 01:21:00,
2013-05-07 19:31:00,34.0,31.0,-100.00,SSE,157,11.0,16.0,87,0.00,,,0.24,133.000000,,2013-05-08 01:31:00,
2013-05-07 19:42:00,34.0,31.0,-100.00,SSE,157,11.0,16.0,87,0.00,,,0.24,133.000000,,2013-05-08 01:42:00,
2013-05-07 19:52:00,34.0,31.0,-100.00,SSE,157,11.0,16.0,87,0.00,,,0.24,133.000000,,2013-05-08 01:52:00,
2013-05-07 20:22:00,33.0,32.0,-100.00,SSE,149,6.0,13.0,96,0.01,,,0.21,23.000000,,2013-05-08 02:22:00,
2013-05-07 20:31:00,33.0,32.0,-100.00,SSE,149,6.0,13.0,96,0.01,,,0.21,23.000000,,2013-05-08 02:31:00,
2013-05-07 20:42:00,33.0,32.0,-100.00,SSE,149,6.0,13.0,96,0.01,,,0.21,23.000000,,2013-05-08 02:42:00,
2013-05-07 20:51:00,33.0,32.0,-100.00,SSE,149,6.0,13.0,96,0.01,,,0.21,23.000000,,2013-05-08 02:51:00,
2013-05-07 21:21:00,33.0,32.0,-100.00,SE,131,5.0,13.0,97,0.00,,,0.20,2.000000,,2013-05-08 03:21:00,
2013-05-07 21:32:00,33.0,32.0,-100.00,SE,131,5.0,13.0,97,0.00,,,0.20,2.000000,,2013-05-08 03:32:00,
2013-05-07 21:43:00,33.0,32.0,-100.00,SE,131,5.0,13.0,97,0.00,,,0.20,2.000000,,2013-05-08 03:43:00,
2013-05-07 21:52:00,33.0,32.0,-100.00,SE,131,5.0,13.0,97,0.00,,,0.20,2.000000,,2013-05-08 03:52:00,
2013-05-07 22:22:00,32.0,32.0,-100.00,SSE,152,5.0,6.0,98,0.00,,,0.19,0.000000,,2013-05-08 04:22:00,
2013-05-07 22:33:00,32.0,32.0,-100.00,SSE,152,5.0,6.0,98,0.00,,,0.19,0.000000,,2013-05-08 04:33:00,
2013-05-07 22:42:00,32.0,32.0,-100.00,SSE,152,5.0,6.0,98,0.00,,,0.19,0.000000,,2013-05-08 04:42:00,
2013-05-07 22:52:00,32.0,32.0,-100.00,SSE,152,5.0,6.0,98,0.00,,,0.19,0.000000,,2013-05-08 04:52:00,
2013-05-07 23:22:00,33.0,31.0,-100.00,East,100,6.0,8.0,92,0.00,,,0.19,0.000000,,2013-05-08 05:22:00,
2013-05-07 23:32:00,33.0,31.0,-100.00,East,100,6.0,8.0,92,0.00,,,0.19,0.000000,,2013-05-08 05:32:00,
2013-05-07 23:42:00,33.0,31.0,-100.00,East,100,6.0,8.0,92,0.00,,,0.19,0.000000,,2013-05-08 05:42:00,
2013-05-07 23:52:00,33.0,31.0,-100.00,East,100,6.0,8.0,92,0.00,,,0.19,0.000000,,2013-05-08 05:52:00,